Weather in Stepnoy

Russia / Volgograd Oblast     48°51′10″N   44°13′14″E
temp.,
°C
wind,
m/s
gust,
m/s
humid.,
%
clouds,
%
prec.,
mm/h
press.,
hPa
HPBL,
m
4 march, thu
thu400:00−2wnw410820 0.0 1019608
03:00−3w59800 0.0 1020420
06:00−2wsw712780 0.0 1020407
09:000wsw9146010 0.0 1019771
12:00+4wsw1015410 0.0 10181243
15:00+5wsw1014460 0.0 10161290
18:00+2wsw816610 0.0 1014579
21:00+1wsw918650 0.0 1014545
5 march, fri
fri500:00+1wsw918750 0.0 1013569
03:00+1wsw10188712 0.0 1012650
06:00+2wsw10178784 0.0 1012768
09:00+2wsw9168691 0.0 1012693
12:00+4wsw9148496 0.0 1012788
15:00+4wsw6138498 0.0 1012698
18:00+4wsw61287100 0.0 1014495
21:00+3wsw4995100 0.2 1015315
6 march, sat
sat600:00+2sw2499100 0.7 1015117
03:00+3sw41094100 2.3 1014467
06:00+3sw41088100 0.3 1013443
09:00+3sw41180100 0.7 1011647
12:00+2w31096100 3.2 1010555
15:00+2n1597100 5.3 1010184
18:00−1nne71091100 0.5 1010474
21:00−3n5886100 0.6 1013576
7 march, sun
sun700:00−3n4685100 0.1 1015520
03:00−5nnw348679 0.1 1017285
06:00−4n237983 0.0 1018263
09:00−3w357583 0.0 1020643
12:00−1w676199 0.1 10211088
15:000w685899 0.1 10201340
18:00−2wsw5105664 0.0 1018647
21:00−2sw8145882 0.0 1018800
8 march, mon
mon800:00−2wsw9155971 0.0 1017760
03:00−2wsw9166435 0.0 1015702
06:00−2wsw916690 0.0 1014685
09:00+1wsw10156027 0.0 1013976
12:00+4wsw11165087 0.0 10121657
15:00+5wsw11165294 0.0 10111872
18:00+2w6137198 0.0 1012662
21:000wsw5117895 0.0 1014404